Location: Fontevrault
(47.1823°N, 0.0493°E)
Time: 09:50:23
(UTC+00:00)

Cosmos 1461 - Pass Details

Date: 16 June 2021
Orbit: 513 x 649 km, 65.0° (Epoch: 03 August)

Event Time Altitude Azimuth Distance (km) Brightness Sun altitude
Rises 21:21:46 0° 323° (NW) 2,828 8.8 -10.9°
Reaches altitude 10° 21:24:04 10° 325° (NW) 1,900 7.2 -11.1°
Maximum altitude 21:28:20 77° 52° (NE) 580 2.9 -11.5°
Enters shadow 21:31:20 18° 137° (SE) 1,388 4.2 -11.8°
